This demonstration page uses our WeatherBlox Daily Observations layout. Learn more.

Left ArrowRight Arrow

Hourly Observations for July 23, 2021

Temp ( °F °C ) Dew Point ( °F °C ) Humidity (%) Winds ( mph kmh ) Pressure ( in mb ) Visibility ( mi km ) Precip ( " mm )
12:53 am 00:53 Clear 80 26.7 63 17.2 56 56 SSE 15 24 29.93 1013 10 16 0.00 0.00
1:53 am 01:53 Clear 79 26.1 64 17.8 60 60 SSE 17 28 29.92 1013 10 16 0.00 0.00
2:53 am 02:53 Clear 77 25 64 17.8 64 64 SSE 15 24 29.91 1013 10 16 0.00 0.00
3:53 am 03:53 Clear 76 24.4 64 17.8 67 67 SE 16 26 29.90 1013 10 16 0.00 0.00
4:53 am 04:53 Partly Cloudy 75 23.9 65 18.3 71 71 SE 13 20 29.90 1013 10 16 0.00 0.00
5:23 am 05:23 Mostly Cloudy with Nearby Thunderstorms 73 22.8 66 18.9 79 79 SE 13 20 29.92 1013 10 16 0.00 0.00
5:51 am 05:51 Cloudy 75 24 66 19 74 74 WSW 5 7 29.95 1014 10 16 0.00 0.00
5:53 am 05:53 Cloudy 75 23.9 66 18.9 74 74 Calm 29.95 1014 10 16 0.00 0.00
6:11 am 06:11 Partly Cloudy with Nearby Thunderstorms 73 22.8 67 19.4 81 81 ENE 6 9 29.96 1015 10 16 0.00 0.00
6:28 am 06:28 Clear 74 23.3 67 19.4 79 79 E 7 11 29.95 1014 10 16 0.00 0.00
6:53 am 06:53 Clear 73 22.8 67 19.4 81 81 SE 8 13 29.94 1014 10 16 0.00 0.00
7:53 am 07:53 Sunny 72 22.2 67 19.4 84 84 SE 12 19 29.93 1014 10 16 0.00 0.00
8:53 am 08:53 Sunny 75 23.9 67 19.4 76 76 SSE 16 26 29.95 1014 10 16 0.00 0.00
9:53 am 09:53 Sunny 78 25.6 67 19.4 69 69 SSE 10 17 29.98 1015 10 16 0.00 0.00
10:53 am 10:53 Sunny 82 27.8 66 18.9 58 58 SSW 8 13 29.97 1015 10 16 0.00 0.00
11:53 am 11:53 Sunny 87 30.6 60 15.6 40 40 W 8 13 29.95 1014 10 16 0.00 0.00
12:53 pm 12:53 Sunny 90 32.2 61 16.1 38 38 WSW 6 9 29.93 1013 10 16 0.00 0.00
1:53 pm 13:53 Sunny 93 33.9 57 13.9 30 30 SSW 13 20 29.91 1013 10 16 0.00 0.00
2:53 pm 14:53 Sunny 94 34.4 52 11.1 24 24 S 8 13 29.88 1012 10 16 0.00 0.00
3:53 pm 15:53 Sunny 96 35.6 51 10.6 22 22 SW 10 17 29.87 1011 10 16 0.00 0.00
4:53 pm 16:53 Sunny 96 35.6 52 11.1 23 23 S 9 15 29.84 1011 10 16 0.00 0.00
5:53 pm 17:53 Hazy 94 34.4 56 13.3 28 28 S 17 28 29.83 1010 5 8 0.00 0.00
6:05 pm 18:05 Mostly Cloudy with Haze 93 33.9 57 13.9 30 30 SSW 17 28 29.74 1007 4 6 0.00 0.00
6:31 pm 18:31 Partly Cloudy 93 33.9 57 13.9 30 30 SSE 16 26 29.73 1007 10 16 0.00 0.00
6:53 pm 18:53 Sunny 93 33.9 55 12.8 28 28 S 15 24 29.82 1010 10 16 0.00 0.00
7:53 pm 19:53 Mostly Sunny 94 34.4 52 11.1 24 24 S 16 26 29.82 1010 10 16 0.00 0.00
8:53 pm 20:53 Mostly Sunny 91 32.8 54 12.2 28 28 S 13 20 29.83 1010 10 16 0.00 0.00
9:53 pm 21:53 Clear 84 28.9 58 14.4 41 41 S 10 17 29.85 1011 10 16 0.00 0.00
10:53 pm 22:53 Clear 82 27.8 58 14.4 44 44 S 8 13 29.87 1012 10 16 0.00 0.00
11:53 pm 23:53 Clear 81 27.2 59 15 47 47 S 8 13 29.88 1012 10 16 0.00 0.00

Powered by AerisWeather